SR9WXJ Weather Reports


Display with metric or nautical units.
time (UTC)temp
F
wind
direction
speed
MPH
gust
MPH
rain 1hr
in
rain 24hr
in
rain mn
in
humidity
%
barometer
mb
20260902185036 62 249 2.0 2.0 0.00 0.00 0.00 100 786.7
20260902183826 62 249 2.0 2.0 0.00 0.00 0.00 100 786.7
20260902182613 63 249 2.0 2.0 0.00 0.00 0.00 100 786.7
20260902181403 63 249 2.0 2.0 0.00 0.00 0.00 100 786.7
20260902180153 64 249 2.0 2.0 0.00 0.00 0.00 100 786.7
20260902174942 64 249 2.0 2.0 0.00 0.00 0.00 100 786.7
20260902172524 65 249 2.0 2.0 0.00 0.00 0.00 100 786.7
20260902171313 66 249 2.0 2.0 0.00 0.00 0.00 100 786.7
20260902170103 66 296 2.0 2.0 0.00 0.00 0.00 100 786.7
20260902163338 69 56 2.0 2.0 0.00 0.00 0.00 100 786.7
20260902162827 69 56 2.0 2.0 0.00 0.00 0.00 100 786.7
20260902162316 69 56 2.0 2.0 0.00 0.00 0.00 100 786.7
20260902161806 70 45 2.0 2.0 0.00 0.00 0.00 100 786.7
20260902161306 70 27 2.0 2.0 0.00 0.00 0.00 100 786.7
20260902160755 70 27 2.0 2.0 0.00 0.00 0.00 100 786.7
20260902160245 70 29 2.0 2.0 0.00 0.00 0.00 100 786.7
20260902155734 70 39 2.0 2.0 0.00 0.00 0.00 100 786.7
20260902155223 70 335 2.0 2.0 0.00 0.00 0.00 100 786.7
20260902154723 70 333 2.0 2.0 0.00 0.00 0.00 100 786.7
20260902153701 71 275 2.0 2.0 0.00 0.00 0.00 100 786.7
20260902153150 72 287 3.0 4.0 0.00 0.00 0.00 100 786.7
20260902152639 72 70 2.0 2.0 0.00 0.00 0.00 100 786.7
20260902152128 72 283 2.0 2.0 0.00 0.00 0.00 100 786.7
20260902151629 72 289 2.0 2.0 0.00 0.00 0.00 100 786.7
20260902151116 72 289 2.0 3.0 0.00 0.00 0.00 100
20260902150605 73 298 2.0 2.0 0.00 0.00 0.00 100
20260902150405 73 356 2.0 2.0 0.00 0.00 0.00 100 798.3
20260902145855 72 288 2.0 4.0 0.00 0.00 0.00 100 798.3
20260902144832 72 313 3.0 4.0 0.00 0.00 0.00 100 798.3
20260902144320 72 298 4.0 4.0 0.00 0.00 0.00 100 798.3
20260902143308 72 300 2.0 2.0 0.00 0.00 0.00 100 798.3
20260902142757 72 312 2.0 2.0 0.00 0.00 0.00 100 798.3
20260902142245 70 339 2.0 3.0 0.00 0.00 0.00 100 798.3
20260902141747 71 299 3.0 5.0 0.00 0.00 0.00 100 798.3
20260902141233 71 315 2.0 4.0 0.00 0.00 0.00 100 798.3
20260902140721 71 306 3.0 4.0 0.00 0.00 0.00 100 798.3
20260902140210 70 241 3.0 4.0 0.00 0.00 0.00 100 798.3
20260902135659 70 332 3.0 4.0 0.00 0.00 0.00 100 798.3
20260902135158 71 317 3.0 5.0 0.00 0.00 0.00 100 798.3
20260902134647 71 292 3.0 4.0 0.00 0.00 0.00 100 798.3
20260902134136 70 309 2.0 4.0 0.00 0.00 0.00 100 798.3
20260902133624 70 267 3.0 4.0 0.00 0.00 0.00 100 798.3
20260902133124 70 286 4.0 6.0 0.00 0.00 0.00 100 798.3
20260902132612 70 267 4.0 8.0 0.00 0.00 0.00 100 798.3
20260902131549 71 299 7.0 10.0 0.00 0.00 0.00 100 798.3
20260902131048 70 304 4.0 6.0 0.00 0.00 0.00 100 798.3
20260902130537 70 247 2.0 4.0 0.00 0.00 0.00 100 798.3
20260902130026 70 305 3.0 5.0 0.00 0.00 0.00 100 798.3
20260902125513 70 323 3.0 5.0 0.00 0.00 0.00 100 798.3
20260902125012 70 335 2.0 2.0 0.00 0.00 0.00 100 798.3
20260902123950 69 286 2.0 2.0 0.00 0.00 0.00 100 798.3
20260902123439 69 282 2.0 2.0 0.00 0.00 0.00 100 798.3
20260902122927 69 255 2.0 2.0 0.00 0.00 0.00 100 798.3
20260902122429 69 21 2.0 2.0 0.00 0.00 0.00 100 798.3
20260902121915 69 18 2.0 2.0 0.00 0.00 0.00 100 798.3
20260902121404 69 283 2.0 2.0 0.00 0.00 0.00 100 798.3
20260902115841 71 254 2.0 3.0 0.00 0.00 0.00 100 798.3
20260902115330 71 190 2.0 2.0 0.00 0.00 0.00 100 798.3
20260902114819 71 305 2.0 2.0 0.00 0.00 0.00 100 798.3
20260902114308 71 232 2.0 2.0 0.00 0.00 0.00 100 798.3
20260902113807 70 194 2.0 2.0 0.00 0.00 0.00 100 798.3
20260902113256 69 152 2.0 2.0 0.00 0.00 0.00 100 798.3
20260902112748 68 110 2.0 2.0 0.00 0.00 0.00 100 798.3
20260902112234 68 94 2.0 2.0 0.00 0.00 0.00 100 798.3
20260902111733 68 167 2.0 2.0 0.00 0.00 0.00 100 798.3
20260902111223 68 20 2.0 2.0 0.00 0.00 0.00 100 798.3
20260902110712 68 16 2.0 2.0 0.00 0.00 0.00 100 798.3
20260902110201 68 49 2.0 2.0 0.00 0.00 0.00 100 798.3
20260902105650 67 97 2.0 2.0 0.00 0.00 0.00 100 798.3
20260902105150 66 92 2.0 2.0 0.00 0.00 0.00 100 798.3
20260902104639 66 78 2.0 2.0 0.00 0.00 0.00 100 798.3
20260902104128 66 95 2.0 2.0 0.00 0.00 0.00 100 798.3
20260902103617 66 55 2.0 2.0 0.00 0.00 0.00 100 798.3
20260902103119 66 40 2.0 2.0 0.00 0.00 0.00 100 798.3
20260902102604 67 9 2.0 2.0 0.00 0.00 0.00 100 798.3
20260902101548 66 305 4.0 4.0 0.00 0.00 0.00 100 798.3
20260902101037 66 302 4.0 5.0 0.00 0.00 0.00 100 798.3
20260902100526 67 297 5.0 6.0 0.00 0.00 0.00 100 798.3
20260902100015 68 313 4.0 6.0 0.00 0.00 0.00 100 798.3
20260902095514 69 253 4.0 6.0 0.00 0.00 0.00 100 798.3
20260902095002 69 276 2.0 3.0 0.00 0.00 0.00 100 799.0
20260902094451 69 293 2.0 3.0 0.00 0.00 0.00 100 799.0
20260902093431 68 236 2.0 2.0 0.00 0.00 0.00 100 799.0
20260902092928 68 176 2.0 2.0 0.00 0.00 0.00 100 799.0
20260902091906 66 179 2.0 3.0 0.00 0.00 0.00 100 799.0
20260902091355 65 214 2.0 2.0 0.00 0.00 0.00 100 799.0
20260902090855 65 193 2.0 2.0 0.00 0.00 0.00 100 799.0
20260902090343 65 233 4.0 4.0 0.00 0.00 0.00 100 799.0
20260902085322 64 157 4.0 4.0 0.00 0.00 0.00 100 799.0
20260902084811 64 53 4.0 4.0 0.00 0.00 0.00 100 799.0
20260902084310 64 255 4.0 4.0 0.00 0.00 0.00 100 799.0
20260902083801 63 250 4.0 4.0 0.00 0.00 0.00 100 799.0
20260902083246 63 191 4.0 4.0 0.00 0.00 0.00 100 799.0
20260902082735 62 244 4.0 4.0 0.00 0.00 0.00 100 799.0
20260902082234 62 169 4.0 4.0 0.00 0.00 0.00 100 799.0
20260902081724 62 17 4.0 4.0 0.00 0.00 0.00 100 799.0
20260902080151 61 115 2.0 2.0 0.00 0.00 0.00 100 799.0
20260902075651 61 115 2.0 2.0 0.00 0.00 0.00 100 799.0
20260902075140 61 111 2.0 2.0 0.00 0.00 0.00 100 799.0
20260902074629 61 171 2.0 2.0 0.00 0.00 0.00 100 799.0
20260902074120 61 243 2.0 2.0 0.00 0.00 0.00 100 799.0
20260902073615 61 272 2.0 2.0 0.00 0.00 0.00 100 799.0
20260902073103 61 242 2.0 2.0 0.00 0.00 0.00 100 799.0
20260902072552 61 267 2.0 2.0 0.00 0.00 0.00 100 799.0
20260902072041 60 249 2.0 2.0 0.00 0.00 0.00 100 799.0
20260902071540 60 140 2.0 2.0 0.00 0.00 0.00 100 799.0
20260902071029 59 147 2.0 2.0 0.00 0.00 0.00 100 799.0
20260902070518 58 68 2.0 2.0 0.00 0.00 0.00 100 799.0
20260902070008 58 65 2.0 2.0 0.00 0.00 0.00 100 799.0
20260902065457 58 8 2.0 2.0 0.00 0.00 0.00 100 799.0
20260902064956 57 16 2.0 2.0 0.00 0.00 0.00 100 799.0
20260902064447 57 16 2.0 2.0 0.00 0.00 0.00 100 799.0
20260902063423 57 45 2.0 2.0 0.00 0.00 0.00 100 799.0
20260902062922 57 40 2.0 2.0 0.00 0.00 0.00 100 799.0
20260902062411 57 208 2.0 2.0 0.00 0.00 0.00 100 799.0
20260902061350 56 179 2.0 2.0 0.00 0.00 0.00 100 799.0
20260902060849 56 80 2.0 2.0 0.00 0.00 0.00 100 799.0
20260902060338 56 80 2.0 2.0 0.00 0.00 0.00 100 799.0
20260902055827 56 80 2.0 2.0 0.00 0.00 0.00 100 799.0
20260902055317 55 37 2.0 2.0 0.00 0.00 0.00 100 799.0
20260902054808 55 4 2.0 2.0 0.00 0.00 0.00 100 799.0
20260902054304 55 301 2.0 2.0 0.00 0.00 0.00 100 799.0
20260902053753 55 45 2.0 2.0 0.00 0.00 0.00 100 799.0
20260902053242 55 63 3.0 3.0 0.00 0.00 0.00 100 799.0
20260902052731 55 63 3.0 3.0 0.00 0.00 0.00 100 799.0
20260902052231 54 49 3.0 3.0 0.00 0.00 0.00 100 799.0
20260902051720 54 51 3.0 3.0 0.00 0.00 0.00 100 799.0
20260902051209 54 73 3.0 3.0 0.00 0.00 0.00 100 799.0
20260902050658 54 88 3.0 3.0 0.00 0.00 0.00 100 799.0
20260902050147 54 97 3.0 3.0 0.00 0.00 0.00 100 799.0
20260902045643 53 91 3.0 3.0 0.00 0.00 0.00 100 799.0
20260902045134 53 149 3.0 3.0 0.00 0.00 0.00 100 799.0
20260902044631 53 115 3.0 3.0 0.00 0.00 0.00 100 799.0
20260902044119 53 249 3.0 3.0 0.00 0.00 0.00 100 799.0
20260902043609 53 179 3.0 3.0 0.00 0.00 0.00 100 799.0
20260902043058 53 160 3.0 3.0 0.00 0.00 0.00 100 799.0
20260902042547 53 63 3.0 3.0 0.00 0.00 0.00 100 799.0
20260902042046 53 63 3.0 3.0 0.00 0.00 0.00 100 799.0
20260902041536 53 63 3.0 3.0 0.00 0.00 0.00 100 799.0
20260902040513 52 45 3.0 3.0 0.00 0.00 0.00 100 799.0
20260902040013 53 45 3.0 3.0 0.00 0.00 0.00 100 799.0
20260902035505 53 46 3.0 3.0 0.00 0.00 0.00 100 799.0
20260902034950 52 88 3.0 3.0 0.00 0.00 0.00 100 799.0
20260902034439 52 214 3.0 3.0 0.00 0.00 0.00 100 799.0
20260902033929 52 214 3.0 3.0 0.00 0.00 0.00 100 799.0
20260902032917 53 5 3.0 3.0 0.00 0.00 0.00 100 799.0
20260902032406 53 40 3.0 3.0 0.00 0.00 0.00 100 799.0
20260902031856 53 66 3.0 3.0 0.00 0.00 0.00 100 799.0
20260902031355 53 41 3.0 3.0 0.00 0.00 0.00 100 799.0
20260902030844 53 130 3.0 3.0 0.00 0.00 0.00 100 799.0
20260902025825 53 57 3.0 3.0 0.00 0.00 0.00 100 799.0
20260902025321 53 97 3.0 3.0 0.00 0.00 0.00 100 799.0
20260902024810 53 97 3.0 3.0 0.00 0.00 0.00 100 799.0
20260902024259 53 97 3.0 3.0 0.00 0.00 0.00 100 799.0
20260902023748 53 97 3.0 3.0 0.00 0.00 0.00 100 799.0
20260902023237 53 108 3.0 3.0 0.00 0.00 0.00 100 799.0
20260902022738 53 113 3.0 3.0 0.00 0.00 0.00 100 799.0
20260902022226 53 86 3.0 3.0 0.00 0.00 0.00 100 799.0
20260902021202 53 94 3.0 3.0 0.00 0.00 0.00 100 799.0
20260902020703 54 131 3.0 3.0 0.00 0.00 0.00 100 799.0
20260902020155 53 74 3.0 3.0 0.00 0.00 0.00 100 799.0
20260902015640 53 56 3.0 3.0 0.00 0.00 0.00 100 799.0
20260902014629 53 56 3.0 3.0 0.00 0.00 0.00 100 799.0
20260902014118 53 56 3.0 3.0 0.00 0.00 0.00 100 799.0
20260902013607 53 56 3.0 3.0 0.00 0.00 0.00 100 799.0
20260902013056 53 97 3.0 3.0 0.00 0.00 0.00 100 799.0
20260902012545 53 97 3.0 3.0 0.00 0.00 0.00 100 799.0
20260902012045 54 97 3.0 3.0 0.00 0.00 0.00 100 799.0
20260902011534 54 97 3.0 3.0 0.00 0.00 0.00 100 799.0
20260902010514 54 73 3.0 3.0 0.00 0.00 0.00 100 799.0
20260902010011 54 33 3.0 3.0 0.00 0.00 0.00 100 799.0
20260902005500 54 45 3.0 3.0 0.00 0.00 0.00 100 799.0
20260902004949 54 74 3.0 3.0 0.00 0.00 0.00 100 799.0
20260902004438 55 182 3.0 3.0 0.00 0.00 0.00 100 799.0
20260902003136 55 74 3.0 3.0 0.00 0.00 0.00 100 799.0
20260902001927 55 74 3.0 3.0 0.00 0.00 0.00 100 799.0
20260901235506 55 63 3.0 3.0 0.00 0.00 0.00 100 799.0
20260901234257 55 48 3.0 3.0 0.00 0.00 0.00 100 799.0
20260901233048 55 69 3.0 3.0 0.00 0.00 0.00 100 799.0
20260901231836 55 208 3.0 3.0 0.00 0.00 0.00 100 799.0
20260901230624 55 102 3.0 3.0 0.00 0.00 0.00 100 799.0
20260901225416 56 127 3.0 3.0 0.00 0.00 0.00 100 799.0
20260901224217 56 102 3.0 3.0 0.00 0.00 0.00 100 799.0
20260901223007 56 97 3.0 3.0 0.00 0.00 0.00 100 799.0
20260901220545 57 45 3.0 3.0 0.00 0.00 0.00 100 799.0
20260901215336 57 56 3.0 3.0 0.00 0.00 0.00 100 799.0
20260901214126 57 56 3.0 3.0 0.00 0.00 0.00 100 799.0
20260901212915 58 56 3.0 3.0 0.00 0.00 0.00 100 799.0
20260901211706 57 56 3.0 3.0 0.00 0.00 0.00 100 799.0
20260901205247 58 69 3.0 3.0 0.00 0.00 0.00 100 799.0
20260901204036 58 69 3.0 3.0 0.00 0.00 0.00 100 799.0
20260901201617 59 69 3.0 3.0 0.00 0.00 0.00 100 799.0
20260901195203 60 127 3.0 3.0 0.00 0.00 0.00 100 799.0
20260901193954 60 135 3.0 3.0 0.00 0.00 0.00 100 799.0
20260901192744 60 46 3.0 3.0 0.00 0.00 0.00 100 799.0
20260901191533 60 40 3.0 3.0 0.00 0.00 0.00 100 799.0
20260901190321 60 343 3.0 3.0 0.00 0.00 0.00 100 799.0